Location: Altleiningen
(49.5078°N, 8.0741°E)
Time: 00:06:37
(UTC+00:00)

ARGOS - Pass Details

Date: 03 March 2021
Orbit: 819 x 835 km, 98.4° (Epoch: 12 April)

Event Time Altitude Azimuth Distance (km) Brightness Sun altitude
Rises 17:49:55 0° 151° (SSE) 3,370 6.1 -6.6°
Reaches altitude 10° 17:52:18 10° 147° (SSE) 2,441 5.3 -7.0°
Maximum altitude 17:57:36 58° 70° (ENE) 970 3.3 -7.9°
Drops below altitude 10° 18:02:56 10° 352° (N) 2,460 5.7 -8.8°
Sets 18:05:20 0° 349° (N) 3,398 6.5 -9.1°
